Regional Weather Roundup
Issued by NWS Bismarck, ND

Home | Current Version | Previous Version | Text Only | Print | Product List | Glossary On
Versions: 1 2 3 4 5 6 7 8 9 10 11 12 13 14 15 16 17 18 19 20 21 22 23 24 25 26 27 28 29 30 31 32 33 34 35 36 37 38 39 40 41 42 43 44 45 46 47 48 49 50
000
ASUS43 KBIS 010402
RWRBIS

NWR BROADCAST TEXT
NATIONAL WEATHER SERVICE BISMARCK ND
1100 PM CDT TUE JUN 30 2015

NOTE: "FAIR" INDICATES FEW OR NO CLOUDS BELOW 12,000 FEET WITH NO
SIGNIFICANT WEATHER AND/OR OBSTRUCTIONS TO VISIBILITY.


CITY           SKY/WX    TMP DP  RH WIND       PRES   REMARKS
WILLISTON      CLOUDY    67  61  81 CALM      29.90S
MINOT          CLOUDY    66  64  93 NE3       29.89S FOG
MINOT AFB      NOT AVBL
BISMARCK       HVY RAIN  66  64  93 NE18G24   29.93R FOG
DICKINSON      PTCLDY    64  62  93 NE13      29.91R FOG
GARRISON         N/A     63  61  93 S7        29.90F
HETTINGER ARPT MOCLDY    67  64  90 E3        29.88R
JAMESTOWN      CLOUDY    66  61  84 CALM      29.93R
HAZEN          FAIR      63  61  94 E8        29.92F
OAKES            N/A     64  63  94 E9        29.90R
STANLEY        FAIR      61  61 100 CALM      29.92S FOG
$$

CITY           SKY/WX    TMP DP  RH WIND       PRES   REMARKS
GRAND FORKS    CLOUDY    64  60  87 CALM      29.91S
GRAND FORKS AF CLOUDY    63  61  94 W1        29.92S
DEVILS LAKE    CLOUDY    64  57  77 SE6       29.92S
FARGO          CLOUDY    66  61  84 E3        29.90F
CAVALIER       FAIR      64  63  94 CALM      29.92S
GRAFTON        FAIR      64  61  88 CALM      29.92F
LANGDON        FAIR      61  61 100 SE6       29.95S
$$

CITY           SKY/WX    TMP DP  RH WIND       PRES   REMARKS
ABERDEEN       CLOUDY    69  65  86 SE5       29.90R
MOBRIDGE       CLOUDY    68  65  90 E9        29.85F
BUFFALO          N/A     66  60  81 E9        29.84R
RAPID CITY     CLEAR     70  67  90 CALM      29.92R
SIDNEY         PTCLDY    66  59  77 NE9       29.90R
WOLF POINT     CLEAR     67  58  72 NE8       29.90R HAZE
GLENDIVE       CLEAR     68  61  77 NE6       29.89R
MILES CITY     CLEAR     83  51  33 N15       29.87R
BAKER          CLEAR     65  60  84 S8        29.89S
$$

CITY           SKY/WX    TMP DP  RH WIND       PRES   REMARKS
BILLINGS       PTCLDY    81  41  24 N13       29.98R
GREAT FALLS    CLEAR     76  51  41 NE14      30.01R
$$



USA.gov is the U.S. government's official web portal to all federal, state and local government web resources and services.